Location: Dal�� Lhota
(48.7500°N, 14.0167°E)
Time: 02:42:01
(UTC+00:00)

Transit 2A - Pass Details

Date: 03 August 2021
Orbit: 594 x 964 km, 66.7° (Epoch: 27 September)

Event Time Altitude Azimuth Distance (km) Brightness Sun altitude
Rises 14:29:49 0° 315° (NW) 3,275 9.5 39.0°
Reaches altitude 10° 14:32:28 10° 303° (WNW) 2,405 9.1 38.6°
Maximum altitude 14:37:01 26° 249° (WSW) 1,625 10.0 37.9°
Drops below altitude 10° 14:41:52 10° 195° (SSW) 2,581 9.2 37.1°
Sets 14:44:50 0° 183° (S) 3,563 9.7 36.6°
